Weather reports worldwide

Advertisment
Potsdam, Germany (10379): temperature & dewpoint: 10.08.2018 13:00:00 - 16.08.2018 13:00:00 (CEST)Potsdam, Germany (10379): temperature 5cm & temperature -5cm: 10.08.2018 13:00:00 - 16.08.2018 13:00:00 (CEST)Potsdam, Germany (10379): temperature -20cm & temperature -100cm: 10.08.2018 13:00:00 - 16.08.2018 13:00:00 (CEST)Potsdam, Germany (10379): wind speed & gusts: 10.08.2018 13:00:00 - 16.08.2018 13:00:00 (CEST)Potsdam, Germany (10379): wind direction: 10.08.2018 13:00:00 - 16.08.2018 13:00:00 (CEST)Potsdam, Germany (10379): reduced air pressure: 10.08.2018 13:00:00 - 16.08.2018 13:00:00 (CEST)Potsdam, Germany (10379): visibility: 10.08.2018 13:00:00 - 16.08.2018 13:00:00 (CEST)Potsdam, Germany (10379): sunshine duration: 10.08.2018 13:00:00 - 16.08.2018 13:00:00 (CEST)Potsdam, Germany (10379): precipitation: 10.08.2018 13:00:00 - 16.08.2018 13:00:00 (CEST)
Date & Time tt [°C] td [°C] tt 5cm [°C] tt -5cm [°C] tt -20cm [°C] tt -100cm [°C] ff [km/h] ff [kn] fx [km/h] fx [kn] dd ppp [hPa] vv [km] sd [min] rr [mm]
16.08.2018 13:00:00 26,9 11,8 30,3 30,5 23,6 23,2 13 7 25 14 SSW 1017,4 45 60 0,0
16.08.2018 12:00:00 26,0 11,7 29,2 28,2 22,7 23,2 10 5 26 14 S 1017,9 45 60 0,0
16.08.2018 11:00:00 24,7 13,4 27,4 25,4 22,0 23,2 9 5 24 13 SE 1018,4 40 60 0,0
16.08.2018 10:00:00 22,7 13,5 24,7 22,4 21,7 23,2 13 7 21 11 S 1018,8 40 60 0,0
16.08.2018 09:00:00 20,8 13,9 21,7 19,6 21,7 23,2 7 4 16 9 SSE 1019,0 35 60 0,0
16.08.2018 08:00:00 17,8 13,9 16,6 19,1 21,9 23,2 8 5 14 8 SSE 1019,4 35 60 0,0
16.08.2018 07:00:00 16,5 13,3 14,2 18,9 22,2 23,2 11 6 16 9 SSE 1019,4 35 33 0,0
16.08.2018 06:00:00 15,8 13,1 13,0 19,2 22,6 23,2 10 5 12 6 S 1019,3 30 0 0,0
16.08.2018 05:00:00 16,0 13,1 13,0 19,6 22,9 23,2 11 6 16 8 S 1019,5 40 0 0,0
16.08.2018 04:00:00 15,9 13,2 13,4 20,0 23,3 23,2 12 7 14 8 S 1019,5 40 0 0,0
16.08.2018 03:00:00 16,8 13,4 14,2 20,5 23,7 23,3 11 6 14 8 S 1019,6 45 0 0,0
16.08.2018 02:00:00 17,3 13,5 14,1 21,0 24,1 23,3 8 5 9 5 S 1019,7 45 0 0,0
16.08.2018 01:00:00 17,1 13,4 13,7 21,6 24,6 23,3 2 1 5 3 SSW 1019,7 45 0 0,0
16.08.2018 00:00:00 17,6 13,8 14,3 22,3 25,1 23,3 5 3 6 3 SW 1019,7 45 0 0,0
15.08.2018 23:00:00 17,7 13,8 14,6 23,2 25,6 23,3 4 2 8 4 NW 1019,5 45 0 0,0
15.08.2018 22:00:00 18,3 13,2 15,3 24,3 26,1 23,3 6 3 14 8 WNW 1019,3 45 0 0,0
15.08.2018 21:00:00 19,9 12,7 17,5 25,8 26,4 23,3 10 5 18 10 WNW 1019,1 45 14 0,0
15.08.2018 20:00:00 22,5 12,8 22,5 27,2 26,6 23,4 10 6 23 12 WNW 1018,5 45 15 0,0
15.08.2018 19:00:00 22,9 13,2 23,4 28,4 26,7 23,4 13 7 22 12 WNW 1018,4 45 6 0,0
15.08.2018 18:00:00 23,2 13,1 23,9 29,5 26,6 23,4 11 6 25 14 NW 1018,3 45 0 0,0
15.08.2018 17:00:00 24,5 12,3 26,5 30,7 26,2 23,4 16 9 27 15 NNW 1018,1 45 21 0,0
15.08.2018 16:00:00 25,0 12,6 27,6 30,6 25,7 23,4 16 9 31 17 W 1018,2 45 24 0,0
15.08.2018 15:00:00 24,3 12,2 26,4 31,6 24,8 23,5 15 8 29 16 WNW 1018,2 45 43 0,0
15.08.2018 14:00:00 23,4 13,0 26,9 30,3 23,8 23,5 15 8 31 17 W 1018,3 45 46 0,0
15.08.2018 13:00:00 22,2 12,8 24,8 28,1 23,0 23,5 17 9 29 16 WNW 1018,6 45 25 0,0
15.08.2018 12:00:00 21,7 12,9 23,8 26,3 22,2 23,5 13 7 29 16 W 1018,6 45 41 0,0
15.08.2018 11:00:00 20,6 13,9 22,9 23,8 21,7 23,5 16 9 31 17 WNW 1018,6 45 45 0,0
15.08.2018 10:00:00 19,1 13,9 20,8 21,4 21,4 23,5 15 8 33 18 W 1018,2 40 45 0,0
15.08.2018 09:00:00 17,9 13,7 19,2 19,1 21,5 23,6 17 9 32 17 W 1017,7 35 57 0,0
15.08.2018 08:00:00 15,8 13,9 15,4 18,9 21,7 23,6 16 9 28 15 W 1017,4 35 3 0,0
15.08.2018 07:00:00 16,1 13,9 16,2 19,0 22,0 23,6 16 9 29 16 W 1016,8 40 0 0,0
15.08.2018 06:00:00 16,1 14,2 15,5 19,2 22,2 23,6 15 8 30 16 W 1016,2 50 0 0,0
15.08.2018 05:00:00 16,6 14,4 16,2 19,5 22,5 23,6 21 11 35 19 W 1015,8 50 0 0,0
15.08.2018 04:00:00 17,3 14,6 17,1 19,8 22,8 23,6 19 10 32 17 W 1015,5 50 0 0,0
15.08.2018 03:00:00 17,2 15,0 16,3 20,2 23,1 23,6 22 12 39 21 WNW 1015,0 48 0 0,0
15.08.2018 02:00:00 17,7 15,6 17,2 20,6 23,4 23,6 21 11 36 19 W 1014,8 48 0 0,0
15.08.2018 01:00:00 17,7 16,3 17,3 20,8 23,8 23,6 16 9 29 15 W 1014,6 45 0 0,0
15.08.2018 00:00:00 17,7 16,3 17,1 21,3 24,2 23,6 17 9 28 15 W 1014,2 45 0 0,0
14.08.2018 23:00:00 17,8 16,4 17,1 22,0 24,6 23,7 18 10 35 19 W 1013,7 45 0 0,0
14.08.2018 22:00:00 18,5 16,6 18,1 22,6 25,0 23,7 22 12 39 21 W 1013,1 40 0 0,0
14.08.2018 21:00:00 18,9 16,8 18,1 23,4 25,4 23,7 26 14 49 26 W 1012,5 40 0 0,0
14.08.2018 20:00:00 19,3 17,1 18,5 24,6 25,7 23,7 23 12 38 21 W 1011,6 35 29 0,0
14.08.2018 19:00:00 19,8 18,3 19,7 25,9 25,8 23,7 14 8 24 13 W 1011,4 35 25 0,0
14.08.2018 18:00:00 18,7 17,4 19,0 27,2 25,8 23,7 18 10 36 20 WSW 1011,3 35 26 1,1
14.08.2018 17:00:00 21,3 17,1 21,6 28,1 25,4 23,7 13 7 37 20 WSW 1010,7 35 16 0,4
14.08.2018 16:00:00 23,5 13,9 26,6 27,6 25,1 23,7 22 12 37 20 WSW 1010,4 40 29 0,0
14.08.2018 15:00:00 21,7 14,1 23,0 26,4 25,0 23,7 11 6 35 19 WSW 1010,8 35 0 0,0
14.08.2018 14:00:00 22,1 13,0 23,2 27,2 24,6 23,7 13 7 29 15 WSW 1010,4 35 10 0,0
14.08.2018 13:00:00 22,5 12,8 24,8 26,3 24,2 23,7 14 8 33 18 WSW 1010,2 35 10 0,0
14.08.2018 12:00:00 21,4 13,3 23,0 25,6 23,8 23,7 15 8 30 16 W 1010,2 35 1 0,0
14.08.2018 11:00:00 21,4 13,3 23,3 25,1 23,4 23,7 20 11 32 17 W 1010,0 35 23 0,0
14.08.2018 10:00:00 20,6 13,6 23,3 23,6 23,1 23,8 16 9 38 20 WSW 1009,9 35 50 0,0
14.08.2018 09:00:00 19,5 14,0 21,1 21,3 23,2 23,8 21 11 31 17 WSW 1009,7 35 58 0,0
14.08.2018 08:00:00 17,7 14,1 17,1 20,6 23,5 23,8 16 9 27 14 WSW 1009,5 35 60 0,0
14.08.2018 07:00:00 16,7 14,0 15,6 20,7 23,8 23,8 16 9 25 13 WSW 1009,1 30 21 0,0
14.08.2018 06:00:00 16,5 13,8 14,0 21,1 24,1 23,8 16 9 26 14 WSW 1008,7 35 0 0,0
14.08.2018 05:00:00 17,3 13,9 15,2 21,5 24,5 23,8 18 10 29 16 W 1008,3 45 0 0,0
14.08.2018 04:00:00 17,7 14,0 16,1 22,0 24,8 23,8 14 8 30 16 WSW 1007,9 45 0 0,0
14.08.2018 03:00:00 18,4 14,5 16,3 22,6 25,2 23,8 16 9 27 15 WSW 1007,7 45 0 0,0
14.08.2018 02:00:00 18,9 15,1 17,0 23,1 25,6 23,8 15 8 27 15 SW 1007,4 45 0 0,0
14.08.2018 01:00:00 18,7 15,4 17,1 23,7 26,0 23,8 16 9 24 13 SSW 1007,5 45 0 0,0
14.08.2018 00:00:00 18,9 15,5 17,1 24,4 26,4 23,8 13 7 22 12 SSW 1007,3 50 0 0,0
13.08.2018 23:00:00 19,8 15,5 18,4 25,2 26,8 23,8 14 7 21 11 SSW 1007,4 50 0 0,0
13.08.2018 22:00:00 21,0 15,1 19,9 26,1 27,1 23,8 12 6 19 10 SSW 1007,3 50 0 0,0
13.08.2018 21:00:00 21,8 14,8 21,5 26,9 27,5 23,8 10 5 19 10 S 1007,1 50 6 0,0
13.08.2018 20:00:00 22,7 14,3 22,6 27,8 27,8 23,8 11 6 22 12 SSW 1006,9 50 0 0,0
13.08.2018 19:00:00 23,1 14,1 23,2 28,6 28,1 23,9 9 5 30 16 S 1006,8 50 0 0,0
13.08.2018 18:00:00 24,6 12,6 24,6 30,0 28,2 23,9 15 8 42 23 WSW 1007,3 45 0 0,0
13.08.2018 17:00:00 26,6 10,3 27,1 31,3 28,1 23,9 31 17 47 26 W 1007,1 35 0 0,0
13.08.2018 16:00:00 29,5 7,8 30,1 33,0 27,6 23,9 13 7 28 15 WSW 1006,2 35 0 0,0
13.08.2018 15:00:00 30,9 5,5 32,8 34,7 26,7 23,9 16 9 28 15 SW 1006,1 40 41 0,0
13.08.2018 14:00:00 31,5 5,1 34,3 33,3 25,6 23,9 11 6 33 18 WSW 1006,4 45 60 0,0
13.08.2018 13:00:00 30,5 5,4 34,1 31,5 24,5 23,9 13 7 27 15 SSE 1007,0 45 60 0,0
13.08.2018 12:00:00 29,0 7,8 30,6 28,9 23,6 23,9 10 5 18 10 E 1007,3 50 59 0,0
13.08.2018 11:00:00 26,2 9,6 27,8 26,2 22,9 23,9 8 4 11 6 E 1007,8 50 55 0,0
13.08.2018 10:00:00 23,8 9,5 25,4 23,0 22,6 23,9 5 3 13 7 ESE 1008,1 45 60 0,0
13.08.2018 09:00:00 21,4 8,5 21,8 20,1 22,7 24,0 3 2 10 5 SSE 1008,4 45 60 0,0
13.08.2018 08:00:00 17,3 9,8 16,2 19,7 23,0 24,0 8 4 18 10 S 1008,9 45 60 0,0
13.08.2018 07:00:00 15,0 7,9 13,1 19,7 23,4 24,0 14 8 20 11 S 1008,9 45 43 0,0
13.08.2018 06:00:00 14,6 8,0 13,6 20,1 23,8 24,0 17 9 20 11 SSE 1008,9 40 0 0,0
13.08.2018 05:00:00 15,7 6,9 12,3 20,6 24,2 24,0 14 7 19 11 SSE 1009,5 40 0 0,0
13.08.2018 04:00:00 15,6 7,0 13,2 21,2 24,6 24,0 15 8 22 12 SSE 1009,9 45 0 0,0
13.08.2018 03:00:00 17,0 6,8 15,9 21,8 25,1 24,0 14 8 22 12 SSE 1010,3 45 0 0,0
13.08.2018 02:00:00 17,6 6,6 14,4 22,4 25,6 24,0 14 8 19 11 SSE 1010,8 50 0 0,0
13.08.2018 01:00:00 18,3 6,4 14,6 23,1 26,1 24,0 13 7 18 10 ESE 1011,2 50 0 0,0
13.08.2018 00:00:00 18,9 8,0 15,5 24,1 26,6 24,1 15 8 19 10 ESE 1011,7 50 0 0,0
12.08.2018 23:00:00 20,0 7,8 17,2 25,0 27,2 24,1 14 8 16 9 ENE 1011,9 50 0 0,0
12.08.2018 22:00:00 20,5 7,8 17,7 26,1 27,7 24,1 11 6 14 8 ENE 1012,2 50 0 0,0
12.08.2018 21:00:00 21,7 5,6 18,4 27,6 28,1 24,1 8 4 10 5 NNW 1012,5 50 0 0,0
12.08.2018 20:00:00 23,6 5,4 21,0 29,5 28,4 24,2 7 4 17 9 SW 1012,7 50 28 0,0
12.08.2018 19:00:00 25,7 4,1 25,2 31,3 28,3 24,2 10 6 21 11 WSW 1013,0 45 48 0,0
12.08.2018 18:00:00 27,4 4,1 29,8 32,9 28,0 24,2 9 5 22 12 W 1013,4 45 60 0,0
12.08.2018 17:00:00 27,1 4,1 29,9 33,5 27,3 24,2 12 7 37 20 WSW 1014,1 45 60 0,0
12.08.2018 16:00:00 26,6 4,4 29,5 33,7 26,5 24,3 8 4 32 17 W 1014,9 45 60 0,0
12.08.2018 15:00:00 25,3 4,5 28,7 33,0 25,5 24,3 16 8 29 16 WSW 1015,8 45 60 0,0
12.08.2018 14:00:00 25,1 5,6 28,6 31,7 24,4 24,3 13 7 31 17 WSW 1016,7 45 60 0,0
12.08.2018 13:00:00 24,2 5,5 27,9 29,8 23,3 24,3 16 9 29 16 W 1017,2 45 60 0,0
12.08.2018 12:00:00 23,1 6,5 25,9 27,3 22,4 24,4 19 10 31 17 WSW 1018,1 45 59 0,0
12.08.2018 11:00:00 21,4 7,1 23,3 24,6 21,7 24,4 10 6 24 13 SW 1018,7 45 59 0,0
12.08.2018 10:00:00 19,7 9,4 21,9 21,4 21,4 24,4 14 8 23 13 S 1019,1 45 60 0,0
12.08.2018 09:00:00 16,8 9,2 18,0 18,1 21,5 24,4 9 5 16 9 S 1019,5 40 60 0,0
12.08.2018 08:00:00 13,5 9,1 12,6 17,6 21,8 24,5 10 5 19 10 SSW 1020,0 45 60 0,0
12.08.2018 07:00:00 11,4 8,4 10,6 17,5 22,1 24,5 15 8 21 11 SSW 1020,5 45 48 0,0
12.08.2018 06:00:00 10,9 8,2 10,0 17,8 22,5 24,5 17 9 21 12 SSW 1020,6 45 0 0,0
12.08.2018 05:00:00 11,4 9,2 9,5 18,3 23,0 24,5 13 7 17 9 WSW 1020,4 45 0 0,0
12.08.2018 04:00:00 12,0 9,6 9,6 18,8 23,5 24,5 12 6 15 8 WSW 1020,5 50 0 0,0
12.08.2018 03:00:00 12,8 9,7 9,6 19,5 24,0 24,5 12 6 20 11 W 1020,6 50 0 0,0
12.08.2018 02:00:00 14,0 9,8 11,2 20,2 24,5 24,6 14 7 23 12 W 1020,8 50 0 0,0
12.08.2018 01:00:00 14,9 9,4 12,5 21,0 25,0 24,6 16 9 26 14 W 1020,8 50 0 0,0
12.08.2018 00:00:00 15,4 8,9 13,1 21,9 25,6 24,6 15 8 26 14 W 1021,0 50 0 0,0
11.08.2018 23:00:00 16,2 8,8 14,1 22,9 26,1 24,6 18 10 27 14 W 1021,0 50 0 0,0
11.08.2018 22:00:00 17,1 8,5 15,5 24,2 26,7 24,7 17 9 35 19 W 1020,6 50 0 0,0
11.08.2018 21:00:00 18,4 8,8 18,0 25,4 27,1 24,7 17 9 43 23 WNW 1020,4 50 4 0,0
11.08.2018 20:00:00 19,9 7,1 19,6 27,1 27,4 24,7 24 13 45 24 W 1019,5 50 11 0,0
11.08.2018 19:00:00 21,0 5,8 21,0 29,1 27,4 24,7 29 16 50 27 W 1019,1 50 46 0,0
11.08.2018 18:00:00 22,1 5,1 24,3 30,5 27,1 24,8 26 14 53 29 W 1018,9 50 51 0,0
11.08.2018 17:00:00 23,0 5,7 25,8 30,9 26,6 24,8 27 14 51 27 W 1018,8 50 49 0,0
11.08.2018 16:00:00 22,7 6,8 25,3 31,0 26,0 24,8 29 16 55 30 W 1019,0 50 52 0,0
11.08.2018 15:00:00 22,9 6,2 26,3 29,9 25,3 24,8 30 16 52 28 W 1019,1 50 38 0,0
11.08.2018 14:00:00 22,1 7,9 25,4 29,2 24,5 24,9 26 14 45 25 W 1019,4 50 46 0,0
11.08.2018 13:00:00 20,7 7,9 24,4 26,4 23,9 24,9 27 15 48 26 W 1019,8 45 12 0,0
11.08.2018 12:00:00 20,2 9,0 21,3 26,0 23,4 24,9 16 9 34 18 W 1019,8 45 20 0,0
11.08.2018 11:00:00 20,5 9,1 21,7 23,8 23,0 24,9 22 12 40 22 W 1019,6 45 3 0,0
11.08.2018 10:00:00 20,2 9,0 21,2 22,5 22,8 25,0 22 12 35 19 W 1019,5 45 10 0,0
11.08.2018 09:00:00 18,4 9,1 18,8 20,8 22,7 25,0 18 10 27 15 WSW 1019,2 45 6 0,0
11.08.2018 08:00:00 16,6 8,2 17,1 19,5 22,9 25,0 15 8 27 14 SSW 1019,2 40 4 0,0
11.08.2018 07:00:00 14,9 8,1 13,8 18,9 23,3 25,0 18 10 27 15 SSW 1019,3 40 20 0,0
11.08.2018 06:00:00 15,4 7,8 13,2 19,2 23,6 25,0 18 10 27 14 S 1019,4 40 0 0,0
11.08.2018 05:00:00 16,4 8,2 14,5 19,9 24,0 25,0 18 10 30 16 S 1019,6 40 0 0,0
11.08.2018 04:00:00 16,4 9,0 14,6 20,2 24,4 25,0 19 11 28 15 S 1020,4 40 0 0,0
11.08.2018 03:00:00 17,2 9,3 16,1 20,7 24,7 25,1 16 8 28 15 SSE 1020,7 40 0 0,0
11.08.2018 02:00:00 17,4 9,4 15,8 21,0 25,2 25,1 16 8 26 14 SSE 1021,2 45 0 0,0
11.08.2018 01:00:00 17,4 8,8 16,1 21,3 25,7 25,1 13 7 22 12 SE 1021,5 45 0 0,0
11.08.2018 00:00:00 17,0 9,2 14,2 21,8 26,3 25,1 14 8 19 10 SE 1021,6 45 0 0,0
10.08.2018 23:00:00 17,8 8,4 14,6 22,8 26,9 25,1 11 6 15 8 SE 1021,9 45 0 0,0
10.08.2018 22:00:00 18,1 8,2 14,6 23,9 27,5 25,1 5 3 6 3 ESE 1021,9 45 0 0,0
10.08.2018 21:00:00 19,0 9,3 16,1 25,4 28,0 25,1 5 3 16 9 NNW 1021,8 50 34 0,0
10.08.2018 20:00:00 21,5 7,4 19,8 27,1 28,4 25,1 9 5 26 14 WNW 1021,4 50 60 0,0
10.08.2018 19:00:00 22,7 7,1 23,0 29,4 28,4 25,1 14 8 26 14 WNW 1021,2 50 53 0,0
10.08.2018 18:00:00 23,3 7,3 25,5 30,4 28,3 25,2 17 9 31 17 W 1021,5 50 50 0,0
10.08.2018 17:00:00 23,2 8,1 25,8 30,2 28,1 25,2 16 9 36 19 W 1021,7 50 25 0,0
10.08.2018 16:00:00 21,9 8,4 22,8 31,9 27,5 25,2 15 8 35 19 W 1022,0 50 34 0,0
10.08.2018 15:00:00 23,3 9,0 26,2 32,0 26,6 25,2 19 10 36 20 W 1021,6 50 48 0,0
10.08.2018 14:00:00 22,9 10,7 25,6 29,8 25,9 25,2 18 10 34 18 WNW 1021,4 50 51 0,0
10.08.2018 13:00:00 20,8 10,9 22,7 26,4 25,4 25,2 19 10 42 23 W 1021,4 50 32 0,0

tt = temperature
td = dewpoint
tt 5cm = temperature 5cm
tt -5cm = temperature -5cm
tt -20cm = temperature -20cm
tt -100cm = temperature -100cm
ff = wind speed
fx = gusts
dd = wind direction
ppp = reduced air pressure
vv = visibility
sd = sunshine duration
rr = precipitation

Next stations